Wind_Speed
19 19 20 20 20 20 20 20 20 21 21 22 22 22 22 22 22 21 21 20 20 20 20 20 20 20 19 19 19 19 19 19 19 19 19 19 19 20 20 20 19 19 19
20 20 21 21 21 21 21 22 22 22 23 23 23 23 23 22 22 22 21 21 21 20 20 20 20 21 20 19 20 20 20 20 20 20 20 20 20 20 20 21 21 20 20
20 21 21 21 21 22 22 23 23 23 23 23 23 24 24 23 23 23 22 22 21 21 21 21 21 22 21 20 20 20 20 20 20 20 20 20 21 20 20 21 22 21 21
21 22 22 22 22 23 23 24 24 24 24 24 24 24 24 24 23 23 23 22 22 21 22 22 22 22 22 21 20 20 21 21 21 21 21 21 21 22 21 21 21 22 22
23 23 23 24 24 24 24 24 25 25 25 25 24 24 24 24 24 24 24 23 22 22 22 23 23 22 23 23 22 21 21 22 22 22 22 22 22 22 22 22 22 22 22
24 24 24 25 24 25 25 26 26 26 25 25 25 25 25 25 25 25 25 24 24 24 24 24 24 23 23 24 23 23 23 23 23 24 24 24 23 23 23 23 23 22 22
26 26 26 26 26 26 26 26 27 27 27 27 27 27 26 26 26 26 26 26 26 25 25 25 25 25 25 25 24 24 24 25 25 25 25 25 25 24 25 24 24 23 23
26 27 28 28 28 27 27 28 28 28 28 28 28 28 27 27 27 28 27 27 27 27 26 26 26 26 26 26 26 26 26 26 26 26 26 26 26 27 27 26 26 25 25
27 28 29 30 29 29 29 29 29 29 29 29 29 29 29 28 28 28 28 27 27 27 27 27 27 26 26 27 26 26 26 27 28 27 27 27 27 27 27 27 27 26 25
28 28 29 29 30 30 30 29 30 30 29 29 29 29 29 29 28 28 28 28 28 28 28 28 28 27 27 28 27 26 27 27 28 28 28 28 28 28 28 28 28 28 27
28 28 29 29 29 30 30 30 30 30 30 30 30 30 30 29 28 28 28 28 28 28 28 28 28 28 28 28 28 27 28 28 29 29 29 29 30 30 30 30 30 29 28
28 29 29 30 30 31 31 31 31 30 30 30 30 30 30 30 29 29 30 30 29 29 29 29 29 29 29 30 29 29 29 29 30 30 30 30 30 30 30 31 31 30 30
30 30 31 31 31 31 31 31 31 31 30 31 31 31 30 30 30 31 31 31 31 31 31 31 30 30 30 31 31 31 31 31 31 31 31 31 31 31 31 31 31 31 32
31 32 32 32 32 31 31 31 31 31 31 31 31 31 31 31 31 31 32 31 32 32 32 32 32 32 31 32 33 33 33 32 32 32 32 32 33 33 33 33 33 33 33
32 32 32 31 31 32 32 31 31 31 31 31 31 31 31 31 32 32 32 32 32 33 33 32 32 32 33 33 33 34 34 34 33 33 33 33 33 34 33 33 34 35 35
33 33 32 32 32 32 32 31 31 31 31 31 31 31 32 32 32 32 33 33 33 33 33 33 33 33 33 33 34 34 35 35 35 35 35 35 34 34 34 34 34 35 36
33 32 32 32 33 33 33 32 32 32 32 32 32 32 33 33 33 33 34 34 34 34 34 33 33 34 34 35 35 35 35 35 35 36 36 36 35 35 35 35 35 35 36
32 32 32 32 33 33 33 33 33 33 33 33 33 34 34 34 34 34 35 35 35 34 34 34 34 34 34 34 35 35 35 36 36 36 36 36 36 36 36 36 36 36 36
33 33 33 33 33 33 33 34 34 34 35 35 34 34 35 35 35 35 35 35 35 35 34 34 34 34 34 35 35 35 36 36 36 36 36 36 36 36 36 36 36 36 37
33 33 33 34 34 34 34 35 35 35 35 35 35 35 35 35 36 36 35 35 35 35 34 34 34 34 35 35 35 35 36 35 35 35 35 35 35 35 35 35 36 36 36
34 34 34 35 35 36 36 36 35 35 35 35 35 35 35 35 35 36 35 35 35 34 34 33 34 34 35 35 35 36 35 35 34 34 34 34 34 34 34 34 35 36 37
34 34 35 36 36 36 37 37 36 36 36 36 36 36 36 36 35 35 35 34 34 34 34 34 34 35 35 35 35 35 36 35 35 34 34 34 34 34 34 34 34 35 35
34 34 35 35 36 36 36 36 36 36 37 37 35 35 35 35 34 34 34 35 34 34 34 35 35 35 35 35 34 34 34 34 34 34 33 34 34 34 34 35 35 35 35
35 35 34 34 34 35 35 36 36 36 35 35 34 34 34 34 33 33 34 34 34 34 35 35 35 35 34 33 33 33 33 33 33 32 32 32 32 33 33 33 34 35 35
34 34 34 34 34 34 34 35 35 35 34 33 33 33 33 33 32 32 33 33 34 34 34 33 33 33 32 32 32 32 32 32 32 32 32 32 32 32 32 33 33 33 33
34 34 34 34 34 34 34 34 34 34 34 34 33 32 32 32 32 32 33 33 33 33 33 33 32 31 31 31 31 30 31 31 31 31 31 31 32 32 32 33 33 33 33
Wind_Direction
291 291 292 291 291 292 293 293 293 294 295 296 297 296 294 294 293 293 292 293 292 289 287 285 282 283 284 280 279 278 278 278 277 276 277 277 275 273 272 271 270 272 272
291 291 292 291 291 291 292 293 293 294 293 293 293 293 293 293 292 291 291 292 291 289 287 285 284 282 283 281 279 277 277 277 277 277 278 278 277 275 273 271 269 270 270
292 293 293 292 291 292 292 292 293 294 293 291 291 291 292 291 290 290 290 290 290 289 287 286 284 282 281 281 279 278 276 276 276 277 277 277 276 276 275 274 272 269 270
292 293 293 293 291 291 292 292 292 292 292 292 291 291 291 291 290 289 289 288 287 287 286 285 284 282 279 279 278 278 277 276 275 275 276 277 277 276 275 274 272 271 270
290 291 292 293 292 292 293 293 293 293 292 291 291 291 291 291 290 289 287 286 286 285 284 285 284 283 279 278 278 278 277 277 276 275 275 276 278 277 276 275 273 272 271
288 291 291 291 292 292 291 292 292 292 291 290 290 290 291 290 288 288 286 285 286 284 283 283 284 283 281 280 278 278 277 277 277 276 275 275 277 276 276 275 274 274 272
289 290 292 293 292 291 291 291 291 289 289 289 289 289 289 288 287 286 285 285 285 285 284 283 283 282 280 279 278 277 278 278 277 277 276 275 275 275 275 274 274 274 273
290 292 291 291 292 292 292 291 290 290 289 288 288 289 288 288 287 286 285 284 284 284 285 285 284 283 282 279 277 277 278 277 277 276 276 275 273 272 272 272 272 273 272
291 291 292 292 291 291 292 291 290 291 290 289 289 289 287 287 287 286 285 283 283 284 284 284 284 282 281 278 277 277 276 276 276 276 275 275 275 273 271 270 270 270 270
292 293 292 292 292 291 291 290 290 290 290 289 289 288 285 284 284 284 285 283 283 283 283 283 283 282 282 280 278 276 276 275 275 275 275 275 275 274 272 270 270 270 269
292 292 292 292 292 291 291 290 290 290 290 289 288 287 286 284 284 283 283 284 283 283 283 282 281 281 281 281 279 277 276 276 276 276 275 274 273 272 271 270 269 269 268
292 293 293 292 292 291 290 290 290 289 289 289 289 288 286 285 284 285 285 284 283 284 283 282 282 282 281 279 278 277 277 277 276 275 274 273 272 271 270 269 267 267 267
292 294 294 293 292 291 290 290 290 289 289 289 289 288 286 284 284 285 285 285 283 283 283 282 282 282 281 281 279 278 277 277 276 275 274 273 271 271 270 269 267 266 266
291 293 293 293 292 290 290 290 290 290 289 289 289 288 286 284 284 284 284 285 285 283 282 281 281 281 280 279 278 277 278 278 277 276 275 273 272 271 270 268 266 265 266
291 292 293 292 291 290 290 290 290 291 290 289 289 288 286 284 284 285 284 284 285 283 282 282 281 280 279 279 278 277 277 277 277 276 275 274 272 271 270 269 267 265 265
291 292 292 291 290 290 290 290 290 291 290 289 288 288 287 285 283 284 284 284 285 284 283 282 282 281 280 278 277 277 277 277 276 275 275 274 272 271 270 269 267 267 266
291 291 291 291 291 290 290 291 291 291 290 289 289 288 287 286 284 284 284 284 285 284 283 283 282 281 280 279 278 278 277 276 276 275 274 273 273 271 270 269 268 268 267
291 291 290 291 291 290 290 290 291 291 290 289 289 288 288 288 286 285 285 285 285 284 284 284 282 281 280 281 280 279 278 278 277 276 274 274 273 272 271 269 268 268 268
291 290 289 290 290 290 290 291 291 290 290 289 288 288 288 287 287 286 286 286 285 285 284 283 282 281 280 280 281 280 280 279 278 277 275 274 274 273 272 270 269 268 267
291 291 291 290 289 290 290 291 291 290 291 290 288 287 287 286 286 287 287 287 286 286 284 283 282 280 280 281 281 282 281 280 279 277 277 275 274 273 272 270 269 268 268
290 291 291 290 289 290 291 291 291 290 290 290 289 288 287 287 286 286 287 286 286 286 285 284 282 281 282 281 281 281 281 281 279 278 277 275 273 272 272 271 271 270 269
291 291 290 290 290 290 291 291 291 290 290 290 289 288 288 287 286 286 285 285 285 284 284 284 283 281 282 282 281 280 280 280 280 279 278 275 273 272 271 271 271 272 271
292 292 292 292 291 291 292 292 292 291 290 290 290 289 287 287 286 285 285 285 285 285 284 284 283 282 282 282 281 280 280 279 280 279 277 275 273 272 271 272 271 271 271
291 291 292 293 294 293 293 293 292 292 292 292 291 289 289 288 287 286 285 285 286 286 285 284 283 282 282 281 280 280 279 279 279 278 276 275 273 272 272 272 272 272 272
291 292 293 294 294 294 294 294 294 293 293 293 292 291 290 289 288 288 288 288 287 288 288 287 285 283 282 281 279 278 278 279 279 278 276 275 273 272 272 272 274 274 273
292 292 293 293 294 294 295 294 294 294 294 293 293 293 292 291 290 290 289 289 289 288 288 288 286 284 283 282 279 278 277 278 279 278 277 275 274 273 272 273 274 274 275
Height
5803 5801 5800 5798 5796 5795 5793 5792 5790 5788 5786 5785 5783 5781 5779 5777 5776 5774 5772 5771 5769 5768 5766 5765 5765 5764 5763 5763 5762 5762 5762 5761 5761 5761 5761 5761 5760 5760 5760 5760 5760 5760 5760
5797 5796 5794 5792 5791 5789 5787 5786 5784 5782 5780 5778 5776 5775 5773 5771 5770 5768 5766 5765 5763 5762 5761 5760 5759 5758 5757 5757 5756 5756 5756 5756 5756 5756 5755 5755 5755 5755 5754 5754 5754 5755 5755
5792 5790 5788 5786 5785 5783 5781 5779 5777 5775 5774 5772 5770 5768 5766 5764 5763 5761 5760 5759 5757 5756 5755 5754 5753 5752 5752 5751 5750 5750 5750 5750 5750 5750 5750 5749 5749 5749 5749 5748 5748 5748 5749
5786 5784 5782 5780 5778 5776 5774 5773 5771 5769 5767 5765 5763 5761 5759 5758 5756 5755 5753 5752 5751 5750 5748 5747 5747 5746 5746 5745 5744 5744 5744 5744 5744 5744 5744 5743 5743 5743 5743 5743 5742 5742 5742
5780 5777 5775 5773 5771 5769 5767 5766 5764 5762 5760 5758 5756 5754 5752 5751 5749 5748 5746 5745 5744 5743 5742 5741 5740 5740 5739 5738 5738 5738 5738 5738 5737 5737 5737 5737 5737 5737 5737 5737 5736 5736 5736
5773 5771 5769 5766 5764 5762 5760 5758 5756 5754 5752 5751 5749 5747 5745 5743 5742 5740 5739 5738 5737 5736 5735 5734 5733 5733 5732 5732 5731 5731 5731 5731 5731 5731 5731 5731 5731 5731 5731 5730 5730 5730 5730
5766 5764 5761 5759 5757 5755 5752 5751 5749 5746 5745 5743 5741 5740 5738 5736 5734 5733 5731 5730 5730 5729 5728 5727 5726 5725 5725 5724 5724 5724 5723 5723 5723 5723 5723 5723 5724 5724 5724 5724 5723 5723 5723
5758 5756 5754 5751 5749 5747 5745 5743 5741 5739 5737 5735 5733 5732 5730 5728 5726 5724 5723 5722 5721 5720 5719 5719 5718 5717 5717 5716 5716 5716 5716 5715 5715 5715 5715 5716 5716 5716 5716 5716 5716 5716 5716
5751 5749 5746 5744 5741 5739 5737 5735 5733 5732 5730 5727 5725 5724 5722 5720 5718 5716 5715 5713 5712 5712 5711 5710 5710 5709 5709 5708 5708 5708 5707 5707 5706 5707 5707 5707 5707 5707 5707 5707 5708 5708 5709
5744 5741 5739 5736 5734 5732 5730 5727 5725 5723 5721 5719 5717 5715 5713 5712 5710 5709 5707 5705 5704 5703 5703 5702 5701 5701 5700 5699 5699 5699 5699 5699 5698 5698 5698 5698 5698 5698 5698 5699 5699 5700 5700
5736 5734 5731 5728 5726 5724 5721 5719 5717 5715 5713 5711 5709 5707 5705 5704 5702 5701 5699 5697 5696 5695 5694 5694 5693 5692 5691 5691 5690 5690 5690 5689 5689 5689 5689 5689 5689 5689 5689 5689 5690 5691 5691
5728 5726 5723 5720 5718 5715 5713 5711 5709 5706 5704 5703 5701 5699 5697 5695 5694 5692 5690 5689 5688 5687 5686 5685 5684 5683 5683 5682 5681 5681 5680 5680 5680 5679 5679 5679 5679 5679 5679 5680 5680 5681 5682
5720 5718 5715 5712 5709 5707 5704 5702 5700 5698 5696 5694 5692 5690 5688 5687 5685 5683 5682 5680 5679 5678 5677 5677 5676 5675 5673 5673 5672 5671 5670 5670 5670 5669 5669 5669 5669 5669 5669 5669 5670 5671 5672
5712 5709 5706 5703 5701 5698 5696 5693 5691 5689 5687 5685 5683 5681 5680 5678 5676 5675 5673 5671 5670 5669 5668 5667 5666 5665 5664 5663 5662 5661 5660 5660 5659 5659 5658 5658 5658 5658 5658 5658 5659 5660 5661
5702 5700 5697 5694 5692 5689 5687 5685 5683 5680 5678 5676 5674 5672 5670 5669 5667 5666 5664 5662 5660 5659 5657 5656 5655 5655 5653 5652 5651 5650 5650 5649 5648 5648 5647 5647 5647 5647 5647 5647 5648 5649 5650
5693 5691 5688 5686 5683 5680 5678 5676 5673 5671 5668 5666 5664 5663 5661 5659 5657 5656 5654 5652 5651 5649 5647 5646 5645 5644 5643 5642 5641 5640 5639 5638 5637 5637 5636 5636 5636 5636 5636 5636 5636 5637 5638
5684 5681 5679 5676 5674 5671 5669 5666 5664 5662 5659 5657 5655 5653 5651 5649 5647 5645 5644 5642 5640 5639 5637 5636 5635 5633 5632 5631 5630 5629 5628 5627 5626 5625 5625 5624 5624 5624 5624 5625 5625 5625 5626
5674 5672 5669 5667 5664 5662 5659 5657 5654 5652 5650 5647 5645 5642 5640 5638 5636 5634 5633 5631 5630 5628 5627 5625 5624 5622 5621 5620 5619 5618 5617 5615 5614 5613 5613 5612 5612 5612 5612 5612 5613 5613 5614
5665 5662 5660 5657 5655 5652 5649 5647 5644 5642 5639 5637 5635 5632 5630 5628 5625 5623 5621 5620 5618 5617 5615 5614 5612 5611 5610 5609 5608 5607 5605 5604 5603 5602 5601 5600 5600 5600 5600 5600 5600 5600 5601
5655 5652 5650 5647 5645 5642 5640 5637 5634 5631 5629 5626 5624 5622 5619 5617 5615 5613 5611 5608 5607 5605 5604 5602 5601 5600 5599 5598 5597 5595 5594 5593 5591 5590 5590 5589 5588 5588 5588 5588 5588 5588 5589
5645 5642 5640 5637 5635 5632 5629 5626 5623 5620 5618 5615 5613 5610 5608 5606 5604 5602 5599 5597 5595 5594 5592 5591 5590 5589 5588 5586 5585 5584 5582 5581 5580 5579 5578 5578 5577 5576 5576 5576 5576 5576 5576
5634 5632 5629 5626 5624 5621 5618 5615 5612 5610 5607 5604 5602 5599 5597 5594 5592 5590 5588 5586 5584 5583 5581 5579 5578 5577 5576 5575 5573 5572 5571 5570 5569 5568 5567 5566 5565 5565 5565 5564 5564 5564 5564
5624 5621 5618 5616 5613 5610 5607 5604 5601 5598 5596 5593 5590 5588 5586 5583 5581 5579 5577 5575 5573 5572 5570 5568 5567 5566 5564 5563 5562 5561 5560 5558 5557 5556 5555 5555 5554 5554 5554 5553 5553 5553 5553
5613 5610 5608 5605 5602 5599 5596 5593 5590 5587 5585 5582 5579 5577 5575 5573 5570 5568 5567 5565 5563 5561 5559 5557 5556 5554 5553 5552 5551 5549 5548 5547 5546 5545 5544 5543 5543 5543 5542 5542 5542 5541 5541
5602 5600 5597 5595 5592 5589 5586 5583 5580 5577 5574 5571 5569 5566 5564 5562 5560 5558 5556 5554 5552 5550 5548 5546 5545 5543 5542 5540 5539 5539 5537 5536 5535 5534 5533 5532 5532 5532 5531 5531 5531 5530 5530
5592 5589 5587 5584 5581 5578 5575 5573 5570 5567 5564 5561 5559 5556 5554 5552 5550 5547 5545 5543 5541 5539 5537 5536 5534 5532 5531 5529 5528 5527 5526 5526 5524 5523 5523 5522 5521 5521 5521 5520 5520 5520 5519